Location: ???????
(54.6339°N, 39.4245°E)
Time: 14:22:10
(UTC+00:00)

Cosmos 2228 Rocket - Pass Details

Date: 19 May 2025
Orbit: 612 x 648 km, 82.5° (Epoch: 20 June)

Event Time Altitude Azimuth Distance (km) Brightness Sun altitude
Exits shadow 23:42:35 - 183° (S) 2,206 5.4 -9.3°
Reaches altitude 10° 23:42:58 10° 182° (S) 2,048 5.2 -9.3°
Maximum altitude 23:47:31 74° 98° (E) 680 3.3 -8.9°
Drops below altitude 10° 23:52:05 10° 15° (NNE) 2,058 7.0 -8.5°
Sets 23:54:20 0° 13° (NNE) 2,969 8.0 -8.3°
